Weather History for Orr, MN

Change the Weather History Date:

Tuesday, December 24, 2013

  Actual Average Record
Temperature  
Mean Temperature -12 °F -  
Max Temperature 6 °F 14 °F 39 °F (2006)
Min Temperature -29 °F 0 °F -31 °F (2004)
Degree Days  
Heating Degree Days 76    
Moisture  
Dew Point -13 °F    
Average Humidity 71    
Maximum Humidity 85    
Minimum Humidity 48    
Precipitation  
Precipitation 0.00 in - - ()
Sea Level Pressure  
Sea Level Pressure 30.13 in    
Wind  
Wind Speed 5 mph (SSE)    
Max Wind Speed 15 mph    
Max Gust Speed 23 mph    
Visibility 8 miles    
Events Snow    
Averages and records for this station are not official NWS values.
T = Trace of Precipitation, MM = Missing Value Source: NWS Daily Summary

Daily Weather History Graph

Daily Weather History Graph

Search for Another Location

Airport:

Trip Planner

Search our weather history database for the weather conditions in past years. The results will help you decide how hot, cold, wet, or windy it might be!

Date:

Astronomy

Dec. 24, 2013 Rise Set
Actual Time 7:59 AM CST 4:22 PM CST
Civil Twilight 7:23 AM CST 4:58 PM CST
Nautical Twilight 6:43 AM CST 5:38 PM CST
Astronomical Twilight 6:05 AM CST 6:16 PM CST
Moon No Moon Rise 11:25 AM CST (12/24)
Length of Visible Light 9h 35m
Length of Day
8h 22m
Waning Gibbous, 58% of the Moon is Illuminated
Dec 24
Waning Gibbous
Dec 25
Last Quarter
Jan 1
New
Jan 7
First Quarter
Jan 15
Full

Hourly Weather History & Observations

Time (CST) Temp. Windchill Dew Point Humidity Pressure Visibility Wind Dir Wind Speed Gust Speed Precip Events Conditions
12:13 AM -25.6 °F - -32.8 °F 69% 30.32 in 10.0 mi Calm Calm - N/A   Clear
12:33 AM -25.6 °F - -32.8 °F 69% 30.32 in 10.0 mi Calm Calm - N/A   Clear
12:53 AM -27.4 °F - -34.6 °F 69% 30.31 in 10.0 mi Calm Calm - N/A   Clear
1:13 AM -29.2 °F - -36.4 °F 68% 30.31 in 10.0 mi Calm Calm - N/A   Clear
1:33 AM -22.0 °F - -29.2 °F 69% 30.30 in 10.0 mi Calm Calm - N/A   Clear
1:53 AM -29.2 °F -41.2 °F -36.4 °F 68% 30.29 in 10.0 mi East 3.5 mph - N/A   Clear
2:13 AM -29.2 °F - -36.4 °F 68% 30.29 in 10.0 mi Calm Calm - N/A   Clear
2:33 AM -27.4 °F - -36.4 °F 62% 30.28 in 10.0 mi Calm Calm - N/A   Clear
2:53 AM -25.6 °F - -32.8 °F 69% 30.29 in 10.0 mi Calm Calm - N/A   Clear
3:13 AM -20.2 °F - -25.6 °F 76% 30.29 in 10.0 mi Calm Calm - N/A   Clear
3:33 AM -22.0 °F -33.0 °F -27.4 °F 76% 30.28 in 10.0 mi SE 3.5 mph - N/A   Clear
3:53 AM -23.8 °F - -29.2 °F 76% 30.27 in 10.0 mi Calm Calm - N/A   Clear
4:13 AM -27.4 °F - -34.6 °F 69% 30.27 in 10.0 mi Calm Calm - N/A   Clear
4:33 AM -20.2 °F -30.9 °F -25.6 °F 76% 30.25 in 10.0 mi SE 3.5 mph - N/A   Clear
4:53 AM -16.6 °F - -23.8 °F 70% 30.24 in 10.0 mi Calm Calm - N/A   Clear
5:13 AM -16.6 °F -29.3 °F -23.8 °F 70% 30.23 in 10.0 mi SSE 4.6 mph - N/A   Clear
5:33 AM -16.6 °F -26.8 °F -22.0 °F 76% 30.23 in 10.0 mi SSE 3.5 mph - N/A   Clear
5:53 AM -16.6 °F - -22.0 °F 76% 30.22 in 10.0 mi Calm Calm - N/A   Clear
6:13 AM -14.8 °F -27.2 °F -20.2 °F 77% 30.21 in 10.0 mi ESE 4.6 mph - N/A   Clear
6:33 AM -14.8 °F -27.2 °F -20.2 °F 77% 30.20 in 10.0 mi ESE 4.6 mph - N/A   Clear
6:53 AM -14.8 °F -24.8 °F -20.2 °F 77% 30.20 in 10.0 mi SE 3.5 mph - N/A   Clear
7:13 AM -14.8 °F -27.2 °F -20.2 °F 77% 30.20 in 10.0 mi ESE 4.6 mph - N/A   Clear
7:33 AM -14.8 °F -27.2 °F -20.2 °F 77% 30.19 in 10.0 mi SE 4.6 mph - N/A   Clear
7:53 AM -14.8 °F -27.2 °F -20.2 °F 77% 30.17 in 10.0 mi ESE 4.6 mph - N/A   Clear
8:13 AM -14.8 °F -29.1 °F -20.2 °F 77% 30.19 in 10.0 mi SSE 5.8 mph - N/A   Clear
8:33 AM -14.8 °F -29.1 °F -20.2 °F 77% 30.19 in 10.0 mi SSE 5.8 mph - N/A   Clear
8:53 AM -11.2 °F -27.8 °F -18.4 °F 70% 30.19 in 10.0 mi SSE 8.1 mph - N/A   Scattered Clouds
9:13 AM -9.4 °F -26.8 °F -14.8 °F 77% 30.18 in 10.0 mi SSE 9.2 mph - N/A   Scattered Clouds
9:34 AM -7.6 °F -22.1 °F -14.8 °F 71% 30.18 in 10.0 mi South 6.9 mph - N/A   Clear
9:53 AM -7.6 °F -23.4 °F -13.0 °F 77% 30.19 in 10.0 mi South 8.1 mph - N/A   Clear
10:13 AM -5.8 °F -19.9 °F -13.0 °F 71% 30.19 in 10.0 mi SSE 6.9 mph - N/A   Clear
10:33 AM -4.0 °F -19.0 °F -11.2 °F 71% 30.19 in 10.0 mi SSE 8.1 mph - N/A   Clear
10:53 AM -2.2 °F -16.8 °F -9.4 °F 71% 30.17 in 10.0 mi SSE 8.1 mph - N/A   Clear
11:13 AM -0.4 °F -18.4 °F -9.4 °F 66% 30.15 in 10.0 mi SSE 12.7 mph 18.4 mph N/A   Clear
11:33 AM 1.4 °F -16.1 °F -9.4 °F 61% 30.13 in 10.0 mi SSE 12.7 mph 20.7 mph N/A   Clear
11:53 AM 1.4 °F -16.1 °F -9.4 °F 61% 30.11 in 10.0 mi SSE 12.7 mph 17.3 mph N/A   Clear
12:13 PM 3.2 °F -13.1 °F -9.4 °F 56% 30.11 in 10.0 mi South 11.5 mph - N/A   Clear
12:35 PM 3.2 °F -13.1 °F -7.6 °F 61% 30.11 in 10.0 mi South 11.5 mph 18.4 mph N/A   Mostly Cloudy
12:53 PM 5.0 °F -11.6 °F -7.6 °F 56% 30.09 in 10.0 mi SSE 12.7 mph - N/A   Mostly Cloudy
1:14 PM 6.8 °F -9.3 °F -9.4 °F 48% 30.09 in 10.0 mi South 12.7 mph 18.4 mph N/A   Overcast
1:33 PM 6.8 °F -7.8 °F -7.6 °F 52% 30.09 in 10.0 mi South 10.4 mph 18.4 mph N/A   Overcast
1:53 PM 6.8 °F -10.0 °F -7.6 °F 52% 30.07 in 10.0 mi South 13.8 mph 20.7 mph N/A   Overcast
2:13 PM 6.8 °F -10.0 °F -7.6 °F 52% 30.06 in 10.0 mi South 13.8 mph 19.6 mph N/A   Overcast
2:34 PM 6.8 °F -10.0 °F -5.8 °F 56% 30.05 in 10.0 mi SSE 13.8 mph 21.9 mph N/A   Overcast
2:53 PM 6.8 °F -10.0 °F -5.8 °F 56% 30.04 in 10.0 mi SSE 13.8 mph 23.0 mph N/A   Overcast
3:13 PM 6.8 °F -10.7 °F -5.8 °F 56% 30.03 in 10.0 mi SSE 15.0 mph 20.7 mph N/A   Overcast
3:33 PM 6.8 °F -8.6 °F -4.0 °F 61% 30.03 in 5.0 mi SSE 11.5 mph 21.9 mph N/A Snow Light Snow
3:53 PM 6.8 °F -8.6 °F -2.2 °F 67% 30.03 in 4.0 mi SSE 11.5 mph 19.6 mph N/A Snow Light Snow
4:13 PM 6.8 °F -8.6 °F -2.2 °F 67% 30.03 in 2.5 mi South 11.5 mph 19.6 mph N/A Snow Light Snow
4:33 PM 6.8 °F -9.3 °F -0.4 °F 72% 30.03 in 1.8 mi South 12.7 mph 17.3 mph N/A Snow Light Snow
4:53 PM 6.8 °F -7.8 °F -0.4 °F 72% 30.03 in 3.0 mi South 10.4 mph 16.1 mph N/A Snow Light Snow
5:13 PM 6.8 °F -8.6 °F -0.4 °F 72% 30.03 in 2.5 mi South 11.5 mph 16.1 mph N/A Snow Light Snow
5:33 PM 6.8 °F -6.9 °F -0.4 °F 72% 30.03 in 5.0 mi South 9.2 mph 16.1 mph N/A Snow Light Snow
5:53 PM 6.8 °F -8.6 °F -0.4 °F 72% 30.02 in 7.0 mi South 11.5 mph 20.7 mph N/A   Overcast
6:13 PM 6.8 °F -5.9 °F -0.4 °F 72% 30.02 in 10.0 mi South 8.1 mph - N/A   Overcast
6:33 PM 6.8 °F -7.8 °F -0.4 °F 72% 30.02 in 10.0 mi South 10.4 mph - N/A   Overcast
6:53 PM 6.8 °F -7.8 °F -0.4 °F 72% 30.02 in 10.0 mi South 10.4 mph 17.3 mph N/A   Overcast
7:13 PM 5.0 °F -8.1 °F -0.4 °F 78% 30.02 in 10.0 mi South 8.1 mph 16.1 mph N/A   Overcast
7:33 PM 5.0 °F -9.1 °F -2.2 °F 72% 30.02 in 10.0 mi South 9.2 mph 16.1 mph N/A   Overcast
7:53 PM 5.0 °F -9.1 °F -0.4 °F 78% 30.01 in 7.0 mi South 9.2 mph 16.1 mph N/A   Overcast
8:13 PM 5.0 °F -9.1 °F -0.4 °F 78% 30.01 in 7.0 mi South 9.2 mph 17.3 mph N/A   Overcast
8:34 PM 5.0 °F -10.0 °F -0.4 °F 78% 30.00 in 7.0 mi South 10.4 mph - N/A   Overcast
8:53 PM 5.0 °F -9.1 °F -0.4 °F 78% 30.00 in 5.0 mi South 9.2 mph - N/A   Haze
9:13 PM 5.0 °F -8.1 °F -0.4 °F 78% 29.99 in 4.0 mi South 8.1 mph - N/A Snow Light Snow
9:33 PM 5.0 °F -9.1 °F -0.4 °F 78% 29.98 in 4.0 mi South 9.2 mph - N/A Snow Light Snow
9:53 PM 5.0 °F -8.1 °F 1.4 °F 85% 29.98 in 3.0 mi South 8.1 mph - N/A Snow Light Snow
10:13 PM 5.0 °F -5.6 °F 1.4 °F 85% 29.97 in 3.0 mi South 5.8 mph - N/A Snow Light Snow
10:33 PM 5.0 °F -8.1 °F 1.4 °F 85% 29.96 in 4.0 mi South 8.1 mph - N/A Snow Light Snow
10:54 PM 5.0 °F -5.6 °F 1.4 °F 85% 29.96 in 2.5 mi South 5.8 mph - N/A Snow Light Snow
11:13 PM 5.0 °F -5.6 °F 1.4 °F 85% 29.96 in 2.5 mi South 5.8 mph - N/A Snow Light Snow
11:33 PM 5.0 °F -6.9 °F 1.4 °F 85% 29.96 in 5.0 mi South 6.9 mph - N/A Snow Light Snow
11:53 PM 5.0 °F -6.9 °F 1.4 °F 85% 29.95 in 5.0 mi South 6.9 mph - N/A Snow Light Snow